User: anonymous   Login
Location: Camp Creek
(33.9000°N, 111.8167°W)
Time: 07:39:36
(UTC-07:00)
Language:

DELTA 2 R/B (1) - Orbit

View from above orbital plane
View from above orbital plane
View from above satellite
View from above satellite

Ground track
Ground track

The orbit data is extracted from the following two-line orbital elements,

1 27665U 03005C   16045.18682008 -.00000043  00000-0  16812-4 0  9993
2 27665  39.5763  80.0671 0009213 329.5362  93.2869 14.28391256680998
Epoch (UTC): 14 February 2016 04:29:01
Eccentricity: 0.0009213
inclination: 39.5763°
perigee height: 790 km
apogee height: 804 km
right ascension of ascending node: 80.0671°
argument of perigee: 329.5362°
revolutions per day: 14.28391256
mean anomaly at epoch: 93.2869°
orbit number at epoch: 68099

The dashed part of the orbit path shows where the satellite is in the earth's shadow,  

DLR